DELTA 1 DEB, 42584

Orbit data source: Space-Track

DELTA 1 DEB, 42584 is space debris in SSO originally from a launch on Tue, 06 Nov 1973 UTC launched from the Air Force Western Test Range (AFWTR). Debris objects in space refer to the collection of defunct objects orbiting the Earth. Examples of debris include non-operational satellites, rocket bodies, and fragments generated from explosions, collisions, or faulty payload assembly.

Loading next visibility...
Identifier
42584, 1973-086HY
Orbit
SSO
Country
Flag of USUS
Related business
Manufacturer
Unknown
Mission
Spacecraft
Bus & Motor
Unknown
Mass
Unknown
Launch date (UTC)
1973-11-06 (52 years ago)
Launch vehicle
Unknown
Launch site
Air Force Western Test Range (AFWTR)
Object type
Payload
Rocket body
Debris
Shape & HBR
Unknown shape, 0.1 m
Radar Cross Section
Small (<0.1 m²)

Expand to show TLE details & history
Last TLE update: 1 day ago

TLE from 1 day ago
0 DELTA 1 DEB
1 42584U 73086HY  25296.49760573  .00000012  00000-0  45881-3 0  9994
2 42584 102.4056 304.3934 0020057  39.9158 114.9682 12.36906886538239
Epoch: 2025-10-23T11:56Z
TLE epoch observation values (Epoch: 2025-10-23T11:56:33.135Z)
Latitude
24.31393°
Longitude
-81.2249°
Altitude
1,529.055 km
Speed
7.1 km/s
True Right ascension
08h 40m 16s
True Declination
24° 11' 52"
Sunlit
Object was in daylight at epoch
Visualization orbit readout
Latitude
Unknown
Longitude
Unknown
Altitude
Unknown
Speed
Unknown
Apparent Right ascension
Unknown
Apparent Declination
Unknown
Sunlit
N/A
Visualization observer readout
Local Sidereal Time
07:32:17
Azimuth
Unknown
Elevation
Unknown
Doppler factor
Unknown
Orbital elements
Apogee altitude
1,533.182 km
Perigee altitude
1,501.51 km
Semi-major axis
7,895.483 km
Eccentricity
0.00201
Inclination
102.4056°
RAAN
304.3934°
Arg. of periapsis
39.9158°
True anomaly
115.17634°
Mean anomaly
114.9682°
Eccentric anomaly
115.07229°
Mean motion
3.09368 °/min
Orbital period
116.37 mins
BSTAR
0.00045881
Loading maneuver chart data...
Computing Atmospheric mass density...
Loading historical data...
Loading historical data...
Loading historical data...
Loading historical data...
Loading historical data...
Loading historical data...
Loading historical data...

Documentation

Showing up to 5 results
|